This is the latest recevied weather packets stored in our database for station/object SP9SOY-2. If no packets are shown the sender has not sent any weather packets the latest 10 day(s).
| Time | Temp. | Humidity | Pressure | Rain* | Wind** | Luminosity | Snow |
|---|---|---|---|---|---|---|---|
| 1777840036 | 16.11° C | 16% | - | - | - | 0 W/m² | - |
| 1777838236 | 16.67° C | 16% | - | - | - | 0 W/m² | - |
| 1777836438 | 17.22° C | 16% | - | - | - | 0 W/m² | - |
| 1777834635 | 17.78° C | 15% | - | - | - | 0 W/m² | - |
| 1777832833 | 18.33° C | 15% | - | - | - | 8 W/m² | - |
| 1777831028 | 20° C | 15% | - | - | - | 16 W/m² | - |
| 1777829233 | 20.56° C | 14% | - | - | - | 21 W/m² | - |
| 1777827441 | 21.67° C | 14% | - | - | - | 26 W/m² | - |
| 1777825634 | 21.67° C | 14% | - | - | - | 148 W/m² | - |
| 1777823831 | 21.67° C | 14% | - | - | - | 270 W/m² | - |
| 1777822032 | 22.22° C | 14% | - | - | - | 404 W/m² | - |
| 1777820236 | 22.22° C | 14% | - | - | - | 538 W/m² | - |
| 1777818433 | 22.22° C | 14% | - | - | - | 827 W/m² | - |
| 1777816636 | 22.22° C | 14% | - | - | - | 1116 W/m² | - |
| 1777814835 | 22.22° C | 14% | - | - | - | 971 W/m² | - |
| 1777813030 | 22.22° C | 14% | - | - | - | 826 W/m² | - |
| 1777811234 | 21.67° C | 14% | - | - | - | 903 W/m² | - |
| 1777809433 | 21.67° C | 14% | - | - | - | 980 W/m² | - |
| 1777807630 | 22.22° C | 14% | - | - | - | 1048 W/m² | - |
| 1777805835 | 21.67° C | 14% | - | - | - | 1116 W/m² | - |
| 1777804034 | 21.67° C | 14% | - | - | - | 1073 W/m² | - |
| 1777802234 | 21.11° C | 14% | - | - | - | 1030 W/m² | - |
| 1777800431 | 20.56° C | 14% | - | - | - | 998 W/m² | - |
| 1777798631 | 20° C | 15% | - | - | - | 966 W/m² | - |
| 1777796837 | 19.44° C | 15% | - | - | - | 774 W/m² | - |
* Rain since midnight (hover to see other rain measurements)
** Current wind speed in m/s (hover to see current wind gust speed)